Probability
0 0 0 0 0 0 0 0 0 0 0 0 0 0 0 0 0 0 0 0 0 0 19 45 52 48 45 45 42 39 35 35 26 26 23 19 23 19 16 16 13 6 6 6 3 0 0 0 0
0 0 0 0 0 0 0 0 0 0 0 0 0 0 0 0 0 0 0 0 0 0 19 45 52 48 48 42 39 35 32 29 26 26 26 23 23 16 16 16 6 6 6 0 0 0 0 0 0
0 0 0 0 0 0 0 0 0 0 0 0 0 0 0 0 0 0 0 0 0 3 16 45 48 45 45 42 39 35 26 26 26 26 26 23 19 16 16 6 6 6 0 0 0 0 0 0 0
0 0 0 0 0 0 0 0 0 0 0 0 0 0 0 0 0 0 0 0 0 3 16 39 45 45 45 45 35 29 26 26 26 26 26 23 19 16 6 6 3 0 0 0 0 0 0 0 0
0 0 0 0 0 0 0 0 0 0 0 0 0 0 0 0 0 0 0 0 0 3 16 32 48 45 45 39 35 29 26 26 26 26 26 26 19 10 3 3 0 0 0 0 0 0 0 0 0
0 0 0 0 0 0 0 0 0 0 0 0 0 0 0 0 0 0 0 0 0 3 16 32 52 52 45 39 35 26 26 26 26 26 23 23 10 3 0 0 0 0 0 0 0 0 0 0 0
0 0 0 0 0 0 0 0 0 0 0 0 0 0 0 0 0 0 0 0 0 3 10 26 35 45 42 42 35 26 26 23 23 23 19 16 6 3 0 0 0 0 0 0 0 0 0 0 0
0 0 0 0 0 0 0 0 0 0 0 0 0 0 0 0 0 0 0 0 0 3 10 23 32 35 32 26 26 16 16 16 19 10 3 0 0 0 0 0 0 0 0 0 0 0 0 0 0
0 0 0 0 0 0 0 0 0 0 0 0 0 0 0 0 0 0 0 0 0 3 13 26 29 29 29 26 13 13 10 6 3 3 0 0 0 0 0 0 0 0 0 0 0 0 0 0 0
0 0 0 0 0 0 0 0 0 0 0 0 0 0 0 0 0 0 0 0 0 3 10 23 26 23 23 23 16 13 10 10 3 3 0 0 0 0 0 0 0 0 0 0 0 0 0 0 0
0 0 0 0 0 0 0 0 0 0 0 0 0 0 0 0 0 0 0 0 0 3 6 6 13 19 23 23 19 13 13 6 6 0 0 0 0 0 0 0 0 0 0 0 0 0 0 0 0
0 0 0 0 0 0 0 0 0 0 0 0 0 0 0 0 0 0 0 0 0 0 6 6 6 16 19 19 10 10 10 6 3 0 0 0 0 0 0 0 0 0 0 0 0 0 0 0 0
0 0 0 0 0 0 0 0 0 0 0 0 0 0 0 0 0 0 0 0 0 0 6 0 3 10 16 16 6 6 6 6 0 0 0 0 0 0 0 0 0 0 0 0 0 0 0 0 0
0 0 0 0 0 0 0 0 0 0 0 0 0 0 0 0 0 0 0 0 0 0 0 0 0 6 10 6 6 6 6 0 0 0 0 0 0 0 0 0 0 0 0 0 0 0 0 0 0
0 0 0 0 0 0 0 0 0 0 0 0 0 0 0 0 0 0 0 0 0 0 0 0 0 6 3 3 6 6 6 0 0 0 0 0 0 0 0 0 0 0 0 0 0 0 0 0 0
0 0 0 0 0 0 0 0 0 0 0 0 0 0 0 0 0 0 0 0 0 0 0 0 0 3 3 3 6 6 3 3 0 0 0 0 0 0 0 0 0 0 0 0 0 0 0 0 0
0 0 0 0 0 0 0 0 0 0 0 0 0 0 0 0 0 0 0 0 0 0 0 0 0 3 3 3 6 6 3 3 0 0 0 0 0 0 0 0 0 0 0 0 0 0 0 0 0
0 0 0 0 0 0 0 0 0 0 0 0 0 0 0 0 0 0 0 0 0 0 0 0 0 3 3 3 3 3 3 0 0 0 0 0 0 0 0 0 0 0 0 0 0 0 0 0 0
0 0 0 0 0 0 0 0 0 0 0 0 0 0 0 0 0 0 0 0 0 0 0 0 0 3 3 3 3 3 0 0 0 0 0 0 0 0 0 0 0 0 0 0 0 0 0 0 0
0 0 0 0 0 0 0 0 0 0 0 0 0 0 0 0 0 0 0 0 0 0 0 0 3 3 3 3 3 3 3 0 0 0 0 0 0 0 0 0 0 0 0 0 0 0 0 0 0
0 0 0 0 0 0 0 0 0 0 0 0 0 0 0 0 0 0 0 0 0 0 0 0 0 3 3 3 3 3 0 0 0 0 0 0 0 0 0 0 0 0 0 0 0 0 0 0 0
0 0 0 0 0 0 0 0 0 0 0 0 0 0 0 0 0 0 0 0 3 0 0 0 3 0 3 3 3 0 0 0 0 0 0 0 0 0 0 0 0 0 0 0 0 0 0 0 0
0 0 0 0 0 0 0 0 0 0 0 0 0 0 0 0 0 0 0 0 0 0 0 3 3 0 0 3 3 0 0 0 0 0 0 0 0 0 0 0 0 0 0 0 0 0 0 0 0
0 0 0 0 0 0 0 0 0 0 0 0 0 0 0 0 0 0 0 0 0 0 0 3 3 0 0 0 0 0 0 0 0 0 0 0 0 0 0 0 0 0 0 0 0 0 0 0 0
0 0 0 0 0 0 0 0 0 0 0 0 0 0 0 0 0 0 0 0 0 0 0 3 3 3 0 0 0 0 0 0 0 0 0 0 0 0 0 0 0 0 0 0 0 0 0 0 0
0 0 0 0 0 0 0 0 0 0 0 0 0 0 0 0 0 0 0 0 0 0 0 3 3 0 0 0 0 0 0 0 0 0 0 0 0 0 0 0 0 0 0 0 0 0 0 0 0
0 0 0 0 0 0 0 0 0 0 0 0 0 0 0 0 0 0 0 0 0 0 0 0 3 3 0 0 0 0 0 0 0 0 0 0 0 0 0 0 0 0 0 0 0 0 0 0 0
0 0 0 0 0 0 0 0 0 0 0 0 0 0 0 0 0 0 0 0 0 0 0 0 0 0 0 0 0 0 0 0 0 0 0 0 0 0 0 0 0 0 0 0 0 0 0 0 0
0 0 0 0 0 0 0 0 0 0 0 0 0 0 0 0 0 0 0 0 0 0 0 0 0 0 0 0 0 0 0 0 0 0 0 0 0 0 0 0 0 0 0 0 0 0 0 0 0
0 0 0 0 0 0 0 0 0 0 0 0 0 0 0 0 0 0 0 0 0 0 0 0 0 0 0 0 0 0 0 0 0 0 0 0 0 0 0 0 0 0 0 0 0 0 0 0 0
Height
5818 5818 5818 5818 5819 5819 5821 5824 5826 5827 5827 5828 5829 5830 5833 5835 5838 5842 5843 5845 5846 5848 5851 5853 5855 5858 5860 5862 5864 5866 5867 5869 5870 5871 5872 5872 5873 5874 5874 5874 5875 5874 5874 5874 5874 5873 5873 5872 5872
5810 5810 5810 5809 5810 5811 5815 5818 5819 5820 5820 5821 5822 5823 5825 5828 5831 5833 5836 5838 5841 5843 5846 5848 5851 5853 5855 5858 5860 5862 5864 5865 5867 5868 5869 5870 5871 5871 5872 5872 5872 5873 5873 5872 5872 5872 5871 5871 5870
5801 5800 5800 5800 5801 5804 5809 5810 5811 5811 5812 5813 5814 5815 5817 5821 5824 5827 5829 5832 5835 5837 5840 5843 5846 5848 5851 5853 5856 5858 5860 5862 5863 5865 5866 5867 5868 5869 5869 5870 5870 5870 5870 5870 5870 5870 5869 5869 5868
5791 5790 5789 5790 5792 5798 5800 5801 5801 5802 5803 5805 5806 5807 5810 5815 5817 5820 5822 5825 5828 5831 5834 5837 5840 5843 5846 5848 5851 5853 5856 5858 5859 5861 5862 5864 5865 5866 5867 5867 5868 5868 5868 5868 5868 5868 5867 5867 5866
5779 5778 5777 5778 5783 5787 5789 5790 5790 5792 5794 5796 5797 5799 5802 5806 5808 5811 5815 5817 5821 5824 5828 5831 5834 5837 5840 5843 5846 5848 5851 5853 5855 5857 5858 5860 5861 5862 5863 5864 5865 5865 5866 5866 5866 5865 5865 5864 5864
5766 5765 5765 5767 5771 5775 5777 5778 5779 5781 5783 5785 5787 5790 5793 5796 5799 5803 5806 5809 5813 5817 5820 5824 5827 5831 5834 5837 5840 5843 5846 5848 5850 5852 5854 5856 5857 5859 5860 5861 5862 5862 5863 5863 5863 5863 5862 5862 5861
5752 5751 5752 5755 5758 5761 5764 5765 5767 5769 5772 5774 5776 5779 5783 5786 5790 5794 5797 5801 5805 5809 5813 5817 5821 5824 5828 5831 5834 5837 5840 5843 5845 5848 5850 5852 5853 5855 5856 5857 5858 5859 5859 5860 5860 5860 5859 5859 5858
5736 5736 5737 5741 5743 5748 5751 5752 5754 5756 5760 5762 5764 5768 5772 5776 5779 5783 5787 5792 5796 5800 5805 5809 5813 5817 5821 5824 5828 5831 5834 5837 5840 5842 5845 5847 5849 5851 5852 5853 5855 5855 5856 5856 5856 5857 5856 5856 5855
5720 5720 5722 5727 5729 5733 5736 5737 5741 5743 5745 5748 5752 5756 5760 5763 5768 5773 5777 5782 5787 5792 5796 5801 5806 5810 5814 5817 5821 5824 5828 5831 5834 5836 5839 5842 5844 5846 5848 5849 5850 5852 5852 5853 5853 5853 5853 5853 5852
5704 5704 5709 5712 5713 5715 5719 5721 5725 5728 5731 5735 5738 5742 5746 5750 5755 5761 5766 5771 5777 5782 5787 5792 5797 5802 5806 5810 5814 5817 5821 5824 5828 5831 5834 5836 5839 5841 5843 5845 5846 5847 5848 5849 5849 5849 5849 5849 5849
5689 5690 5694 5695 5696 5698 5701 5705 5709 5711 5715 5720 5724 5728 5732 5736 5742 5748 5754 5760 5766 5771 5777 5783 5788 5793 5798 5802 5806 5810 5814 5818 5821 5825 5828 5831 5833 5836 5838 5840 5841 5843 5844 5845 5845 5845 5846 5845 5845
5674 5675 5676 5678 5679 5681 5684 5687 5691 5694 5700 5703 5707 5711 5717 5722 5727 5734 5740 5747 5754 5760 5767 5773 5779 5784 5789 5794 5798 5803 5807 5811 5815 5818 5822 5825 5828 5831 5833 5835 5837 5838 5839 5840 5841 5841 5842 5841 5841
5661 5661 5661 5662 5663 5665 5666 5670 5673 5678 5682 5685 5690 5695 5701 5707 5713 5719 5726 5733 5741 5748 5755 5762 5768 5774 5780 5785 5790 5794 5799 5804 5808 5812 5815 5819 5822 5825 5827 5830 5832 5833 5835 5836 5837 5837 5837 5837 5837
5649 5647 5647 5647 5647 5649 5650 5654 5657 5662 5665 5668 5673 5678 5685 5691 5698 5704 5712 5720 5728 5736 5744 5751 5758 5764 5770 5776 5781 5786 5791 5796 5800 5805 5809 5812 5816 5819 5822 5824 5826 5828 5830 5831 5832 5833 5833 5833 5832
5636 5635 5634 5634 5634 5635 5636 5639 5644 5646 5648 5652 5657 5663 5669 5677 5683 5691 5699 5708 5716 5725 5733 5740 5747 5754 5761 5767 5772 5778 5783 5788 5793 5797 5802 5806 5809 5813 5816 5819 5821 5823 5824 5826 5827 5828 5828 5828 5828
5625 5624 5624 5624 5623 5623 5623 5626 5631 5630 5632 5638 5643 5648 5655 5663 5670 5678 5686 5695 5704 5712 5721 5729 5737 5744 5751 5757 5763 5769 5775 5780 5785 5790 5795 5799 5803 5806 5810 5813 5815 5817 5819 5821 5822 5823 5823 5823 5823
5616 5615 5614 5614 5613 5611 5610 5612 5617 5617 5619 5624 5630 5635 5641 5649 5657 5665 5673 5682 5692 5701 5709 5718 5726 5734 5742 5748 5754 5760 5766 5772 5777 5782 5787 5792 5796 5800 5803 5806 5809 5811 5814 5815 5816 5817 5818 5818 5818
5610 5607 5605 5604 5603 5600 5600 5601 5604 5605 5607 5611 5617 5622 5629 5637 5645 5652 5661 5670 5679 5689 5698 5707 5716 5724 5732 5739 5745 5752 5758 5764 5769 5775 5780 5785 5789 5793 5797 5800 5803 5805 5808 5809 5811 5811 5812 5812 5812
5602 5599 5597 5596 5593 5591 5590 5591 5593 5595 5597 5602 5607 5612 5619 5626 5633 5641 5649 5658 5668 5678 5688 5697 5706 5714 5722 5729 5736 5743 5750 5756 5761 5767 5772 5777 5782 5786 5790 5793 5796 5799 5802 5803 5805 5805 5806 5806 5806
5595 5592 5589 5588 5586 5583 5582 5583 5585 5587 5590 5594 5599 5604 5610 5617 5624 5631 5639 5648 5657 5667 5677 5687 5696 5704 5713 5721 5728 5735 5741 5747 5753 5759 5764 5769 5774 5779 5783 5787 5790 5793 5795 5797 5798 5799 5800 5800 5800
5590 5586 5582 5580 5579 5577 5576 5577 5580 5581 5584 5588 5592 5597 5602 5608 5615 5623 5631 5639 5648 5658 5667 5677 5686 5695 5703 5711 5718 5725 5731 5737 5744 5750 5756 5762 5766 5771 5776 5779 5783 5786 5788 5790 5792 5793 5794 5794 5794
5586 5582 5577 5574 5572 5572 5572 5571 5576 5577 5579 5583 5587 5591 5595 5602 5608 5614 5622 5631 5639 5649 5658 5667 5676 5685 5693 5701 5709 5716 5723 5730 5737 5743 5748 5753 5758 5763 5768 5772 5775 5778 5781 5783 5785 5786 5787 5787 5787
5581 5577 5574 5571 5568 5568 5569 5568 5572 5573 5575 5578 5582 5586 5590 5596 5601 5607 5614 5622 5631 5639 5648 5657 5667 5675 5684 5692 5700 5708 5715 5721 5728 5734 5739 5745 5750 5755 5760 5764 5768 5771 5774 5776 5778 5779 5780 5780 5781
5577 5574 5571 5568 5566 5566 5566 5566 5568 5569 5571 5574 5577 5581 5584 5589 5595 5600 5607 5614 5622 5630 5639 5648 5657 5666 5674 5682 5691 5699 5706 5713 5719 5725 5731 5737 5742 5748 5752 5756 5760 5763 5766 5769 5770 5772 5773 5773 5774
5575 5571 5568 5565 5564 5564 5563 5563 5566 5566 5567 5569 5572 5575 5579 5583 5588 5594 5601 5607 5615 5623 5631 5639 5648 5657 5665 5674 5682 5690 5697 5704 5710 5717 5723 5729 5734 5740 5745 5748 5752 5756 5759 5761 5763 5764 5765 5766 5766
5572 5569 5567 5564 5562 5561 5561 5561 5563 5563 5563 5565 5567 5570 5574 5578 5582 5588 5594 5600 5607 5615 5623 5631 5640 5649 5657 5665 5673 5681 5688 5695 5702 5709 5715 5721 5727 5732 5736 5740 5744 5747 5751 5753 5755 5757 5758 5759 5759
5569 5566 5564 5561 5559 5558 5558 5559 5560 5559 5559 5561 5563 5565 5569 5572 5577 5581 5587 5593 5599 5607 5614 5623 5632 5640 5648 5656 5664 5672 5679 5687 5694 5700 5707 5712 5718 5723 5728 5732 5736 5739 5742 5745 5747 5749 5750 5751 5751
5567 5563 5561 5558 5556 5555 5555 5555 5556 5555 5556 5557 5559 5560 5563 5566 5570 5575 5580 5585 5592 5599 5606 5614 5622 5631 5639 5647 5655 5663 5671 5678 5685 5691 5698 5704 5710 5714 5719 5724 5728 5731 5734 5737 5739 5741 5742 5743 5744
5563 5560 5557 5554 5553 5551 5550 5554 5552 5551 5551 5552 5553 5555 5557 5560 5564 5568 5572 5578 5584 5591 5598 5606 5613 5621 5629 5637 5646 5654 5662 5669 5676 5683 5689 5696 5701 5706 5711 5716 5720 5723 5726 5729 5731 5733 5735 5736 5736
5558 5556 5553 5551 5549 5547 5545 5549 5547 5546 5546 5546 5548 5550 5552 5554 5557 5561 5565 5570 5576 5582 5589 5597 5605 5612 5620 5628 5636 5645 5652 5660 5667 5674 5681 5687 5692 5698 5703 5707 5711 5715 5718 5721 5723 5725 5727 5728 5728
Wind_Speed
32 33 34 34 35 34 31 29 29 30 30 31 33 34 34 34 33 34 32 31 31 31 29 29 28 28 27 27 26 25 24 22 20 19 18 17 16 15 14 13 12 10 9 8 8 7 7 7 7
35 36 36 38 38 37 32 30 31 32 34 34 35 36 36 36 35 34 34 33 33 33 32 31 30 30 29 29 28 27 26 24 23 21 19 19 17 16 15 14 13 12 11 9 9 8 8 7 7
38 39 40 41 40 38 35 33 34 35 37 37 38 38 39 38 36 36 35 35 35 35 34 33 32 31 31 31 30 29 28 26 25 23 21 20 19 18 17 16 15 13 12 11 10 9 9 8 8
41 43 44 44 42 38 37 37 38 39 39 40 40 41 41 39 38 38 38 37 37 37 36 36 34 33 33 32 32 31 30 28 26 25 23 22 21 20 19 18 16 15 14 12 11 10 10 9 9
44 46 47 47 44 41 40 41 42 42 42 42 43 43 42 41 41 40 40 40 40 39 38 38 37 36 35 34 33 32 31 30 28 27 25 23 22 21 20 19 18 16 15 14 12 11 11 10 10
47 48 49 48 46 44 44 44 45 45 45 45 45 45 44 43 43 43 43 43 42 42 41 40 39 38 37 36 35 34 33 32 30 29 27 25 24 23 22 21 19 17 16 15 14 13 12 12 11
49 50 51 50 49 48 48 47 47 48 47 47 48 48 47 46 46 45 45 45 45 44 43 42 41 40 39 38 37 36 35 33 32 31 29 27 25 24 23 22 20 19 17 16 15 13 13 13 12
50 52 53 52 52 51 49 48 48 49 49 50 50 50 49 49 48 48 48 47 47 46 46 45 43 42 41 39 38 38 36 35 33 32 31 29 27 26 24 23 21 20 19 17 16 14 14 14 13
50 53 53 53 54 53 51 51 49 50 51 52 52 52 51 51 50 50 50 49 49 48 47 47 46 44 43 41 40 39 38 36 35 34 32 31 29 27 25 24 23 21 20 18 17 16 15 15 15
50 53 52 52 53 53 52 52 51 52 53 54 54 55 54 53 53 52 52 51 51 50 49 48 47 46 45 43 42 41 39 38 37 35 34 32 30 29 27 26 24 22 21 19 18 17 16 16 16
48 50 50 51 52 53 53 53 52 53 54 55 55 56 56 55 54 54 54 53 53 52 51 50 49 48 47 45 44 43 41 39 38 37 35 34 32 30 28 27 26 24 22 21 20 19 17 17 17
45 46 47 49 51 51 52 52 53 54 54 55 56 57 57 56 56 56 55 55 54 54 53 52 51 50 49 47 46 44 42 41 40 38 37 35 33 31 30 29 27 25 24 22 21 20 19 18 18
42 42 44 46 48 49 50 50 52 53 53 54 55 57 58 57 57 57 57 57 56 56 55 55 54 52 51 49 47 46 44 42 41 40 38 36 34 32 31 30 28 27 25 24 23 21 20 19 19
39 39 41 43 44 46 48 47 49 49 51 53 54 56 57 57 57 58 58 58 57 57 56 56 56 54 53 51 49 47 45 44 43 42 40 38 36 34 32 31 30 28 26 25 24 23 22 21 20
36 36 36 38 39 40 44 45 45 47 49 51 53 53 54 55 56 56 57 58 58 57 57 57 57 56 55 53 50 48 47 45 44 43 41 40 38 36 34 32 31 29 28 26 25 24 23 22 22
34 34 34 35 36 36 40 41 39 45 47 49 51 52 53 54 55 55 56 57 58 58 58 59 58 57 56 54 51 49 48 47 46 45 43 41 39 37 35 34 32 30 28 27 26 25 24 24 23
32 33 32 33 33 35 37 38 39 41 44 46 49 50 52 54 54 55 56 57 58 59 58 58 58 58 56 55 53 51 49 48 47 46 44 43 41 39 37 35 33 31 30 29 28 27 26 25 25
30 30 31 30 30 33 35 36 37 39 41 42 44 46 49 51 53 54 56 58 59 59 59 59 59 58 56 55 53 52 50 48 47 47 45 44 42 40 39 37 35 33 31 30 29 28 27 27 26
29 29 29 28 28 32 33 33 34 35 38 38 39 41 44 48 50 51 54 57 59 59 59 59 58 58 57 55 53 52 50 49 48 47 46 45 43 41 39 38 36 34 33 31 30 29 29 28 27
29 29 29 28 26 28 29 29 30 32 33 34 36 38 42 45 47 49 52 54 57 59 59 59 58 58 57 56 54 52 51 50 49 48 46 45 44 42 40 38 37 35 34 33 32 31 30 29 29
28 27 26 26 25 25 26 25 26 29 31 32 35 36 39 43 45 48 51 53 55 57 58 59 58 57 57 56 54 52 51 51 50 48 47 46 45 44 42 40 38 37 35 34 33 32 31 31 30
26 26 26 24 23 22 21 22 21 26 29 31 33 34 36 41 43 46 49 52 53 56 57 58 58 57 57 57 55 52 51 51 50 49 48 48 47 45 43 41 39 38 36 36 35 34 33 32 32
24 24 23 21 20 18 17 19 18 23 25 27 30 33 35 37 41 44 47 51 52 54 56 58 58 57 56 56 55 53 51 51 51 50 49 48 47 45 43 42 40 39 38 37 36 35 34 34 33
23 23 21 19 16 15 13 15 16 20 23 25 28 29 32 37 39 41 45 49 51 52 55 57 58 57 56 56 55 54 51 51 51 49 48 47 47 45 44 42 41 40 39 38 37 36 35 35 34
23 22 20 17 15 14 13 14 13 16 21 24 26 27 30 35 37 39 42 46 49 51 54 56 58 57 57 56 55 55 52 51 51 49 48 47 46 45 44 43 42 40 39 38 37 36 36 36 35
22 20 18 17 15 14 13 13 13 14 18 22 24 25 28 32 35 38 40 44 48 50 53 55 56 56 57 57 55 54 52 50 50 50 48 47 46 45 44 44 43 41 40 38 38 37 37 37 36
22 20 19 18 17 16 14 13 13 14 17 21 23 25 27 31 33 36 39 42 47 49 51 54 55 55 56 57 56 56 52 50 49 49 49 47 46 45 44 43 43 41 40 39 38 38 37 37 37
22 20 19 18 18 18 16 15 14 14 17 20 23 25 26 29 33 36 39 40 44 47 50 53 55 56 55 56 57 56 54 51 50 49 49 48 46 46 45 44 43 42 41 40 39 38 38 37 37
21 19 19 19 19 20 19 17 17 16 18 20 23 24 27 29 31 35 38 40 44 46 49 53 54 54 56 56 56 56 53 52 50 50 49 49 47 46 45 45 44 43 41 40 39 38 38 38 37
21 20 19 19 20 21 22 20 18 19 20 21 23 24 26 29 29 32 36 40 43 46 49 52 53 54 55 56 57 58 54 52 52 50 49 49 48 47 46 45 44 43 42 41 39 39 39 38 38
Wind_Direction
274 271 269 268 266 266 266 264 260 256 253 250 248 247 246 245 243 241 239 234 233 232 230 229 228 226 225 224 225 225 226 228 229 230 231 230 228 227 228 229 232 235 240 247 255 264 278 284 289
273 270 268 266 266 267 267 264 261 257 254 250 249 247 246 244 242 241 239 235 232 232 230 229 228 227 226 225 225 226 227 228 229 230 230 230 229 229 229 230 233 236 241 248 256 263 271 279 287
273 270 267 266 265 267 268 264 260 256 254 251 249 248 247 244 242 240 239 236 233 231 230 228 228 228 227 226 226 226 227 229 230 230 229 229 230 230 230 232 234 238 243 248 256 262 268 277 285
272 270 267 266 267 268 266 263 259 255 253 251 249 248 247 245 242 240 238 236 233 231 230 229 228 227 228 227 226 227 228 228 230 230 229 229 231 230 230 232 235 239 243 248 255 262 267 274 282
271 269 267 267 267 267 264 261 258 256 253 251 249 248 247 244 241 239 237 235 233 231 230 229 228 228 228 228 227 227 228 228 229 229 229 230 231 231 231 232 235 239 243 247 255 262 266 271 277
270 268 267 267 266 264 262 259 257 255 252 250 249 248 246 244 241 238 236 234 233 231 229 229 228 228 228 228 228 227 228 228 229 229 229 230 231 231 231 232 235 239 243 248 254 262 265 269 274
269 267 266 266 264 262 259 257 255 254 251 249 248 247 246 243 241 238 236 233 232 231 229 228 228 228 228 228 228 227 228 229 229 229 229 230 231 231 230 232 235 239 243 248 253 260 264 268 272
268 267 265 264 262 260 258 256 255 254 251 248 247 246 245 243 241 238 236 233 231 230 229 228 228 227 227 227 227 227 228 228 228 228 229 230 231 230 231 233 236 239 243 247 252 258 263 268 272
268 265 265 264 262 260 257 255 253 252 250 248 246 245 243 243 240 238 235 233 231 229 228 228 228 227 227 227 227 227 227 228 228 229 229 230 230 230 231 234 235 239 243 247 251 257 263 268 271
268 265 265 263 261 258 256 255 252 251 249 247 245 243 242 241 239 237 235 232 230 228 227 226 227 227 227 226 226 226 226 228 228 228 229 230 230 231 232 234 236 239 243 246 251 255 263 268 271
270 267 264 261 261 259 256 254 252 250 248 246 244 242 240 240 238 236 233 231 229 227 225 225 225 225 226 225 225 226 226 227 228 228 229 230 230 230 232 234 237 239 242 246 250 254 262 267 270
274 271 266 263 261 259 257 254 251 249 247 245 243 241 238 237 236 234 232 229 227 226 224 223 224 224 224 224 225 225 225 227 228 228 228 229 229 230 232 234 237 239 242 245 249 254 261 265 269
278 275 269 266 263 259 257 254 251 249 246 243 242 239 237 236 234 232 230 227 225 224 222 221 222 223 223 223 224 225 225 226 227 227 228 228 229 230 231 234 237 240 242 245 248 254 260 265 270
281 279 274 269 265 261 257 254 251 247 244 241 239 238 235 234 232 231 228 225 224 222 221 220 221 222 223 223 223 225 225 225 226 227 228 228 229 230 232 235 238 240 242 245 249 253 260 265 270
283 282 276 270 267 264 259 254 250 246 242 239 238 236 233 232 230 229 227 224 222 221 221 220 220 221 222 222 223 225 225 226 226 227 228 228 229 230 233 235 238 240 243 245 249 253 259 264 269
286 282 278 273 269 267 261 256 250 245 242 238 236 234 231 229 228 226 224 222 221 220 220 219 219 220 221 222 222 224 225 226 226 226 227 228 229 230 233 235 237 240 242 245 248 253 257 263 269
290 286 282 276 271 269 265 258 249 245 241 237 235 233 230 227 226 224 222 220 219 219 219 218 219 220 221 222 223 224 225 226 226 226 226 228 229 231 233 235 237 239 242 245 249 253 257 262 268
295 292 287 284 275 271 268 259 250 245 242 237 234 232 229 226 224 222 221 219 218 218 218 218 219 219 220 222 223 224 225 225 226 225 226 227 229 231 233 235 236 238 242 245 248 252 257 262 268
301 297 292 290 280 275 271 261 251 245 242 235 231 230 226 224 222 220 219 218 217 217 218 218 219 218 219 221 221 223 224 225 226 225 226 227 229 231 233 234 236 238 242 245 248 252 257 262 267
307 302 296 293 287 279 272 262 250 243 239 234 230 227 224 222 221 220 218 217 217 216 217 218 218 218 219 220 221 221 223 224 225 225 226 227 229 231 233 235 236 238 241 245 248 252 257 261 266
309 305 303 298 293 283 275 263 248 238 237 234 231 228 225 223 221 219 219 218 216 216 216 217 218 219 219 219 220 220 222 223 224 225 226 227 229 230 232 234 236 238 241 244 248 252 257 260 265
311 307 307 302 295 288 275 264 249 239 236 234 231 229 227 223 222 220 219 218 217 216 216 217 218 219 219 220 220 221 222 223 224 225 227 228 229 231 233 235 236 238 241 245 248 252 256 260 265
315 313 309 306 297 288 274 265 256 242 237 233 229 227 228 223 223 221 219 217 217 216 216 216 217 219 219 219 220 220 221 222 223 224 226 228 229 231 232 235 237 239 242 246 249 252 256 261 264
321 319 313 305 297 288 277 270 260 244 239 232 229 227 227 224 223 222 220 218 216 216 216 216 216 218 218 218 219 220 221 222 223 224 225 227 229 230 232 235 238 241 244 246 249 252 256 260 264
323 320 318 309 298 290 282 277 263 250 242 235 230 228 226 223 223 222 220 220 218 217 217 216 216 218 218 219 219 220 221 223 223 223 225 227 229 231 233 235 238 241 244 246 249 252 256 259 263
322 317 314 307 298 288 283 279 266 257 246 238 234 231 227 224 223 221 221 220 219 218 218 216 216 218 218 219 219 220 221 223 223 224 225 227 229 232 234 236 238 241 244 247 250 253 256 260 263
322 315 308 297 292 288 284 278 271 259 250 240 235 233 230 227 225 222 221 220 219 218 218 217 217 217 218 219 220 221 222 223 224 225 226 227 229 231 233 236 239 242 245 247 250 254 257 260 264
320 316 307 297 288 287 282 280 276 261 253 245 239 237 234 228 226 224 223 221 219 218 218 218 217 217 218 220 220 221 222 224 223 225 226 226 228 231 234 236 240 242 245 248 251 255 258 260 264
314 311 305 294 284 282 279 274 271 265 255 248 240 239 237 233 228 226 224 223 220 218 217 217 218 218 218 219 220 221 222 223 224 226 226 227 228 231 234 237 240 243 246 249 252 255 259 262 265
309 306 301 291 283 280 279 275 269 264 257 250 244 240 238 236 231 227 225 223 221 219 218 218 219 219 220 220 220 220 221 223 224 225 227 228 229 232 235 237 240 244 247 250 253 256 259 263 266